Weather History for Huntington, WV

Change the Weather History Date:

Monday, May 7, 2012

  Actual Average Record
Temperature  
Mean Temperature 71 °F 62 °F  
Max Temperature 83 °F 73 °F 92 °F (1940)
Min Temperature 59 °F 50 °F 30 °F (1970)
Degree Days  
Heating Degree Days 0 5  
Month to date heating degree days 0 37  
Since 1 July heating degree days 3614 4425  
Cooling Degree Days 6 2  
Month to date cooling degree days 52 8  
Year to date cooling degree days 109 40  
Growing Degree Days 20 (Base 50)    
Moisture  
Dew Point 62 °F    
Average Humidity 76    
Maximum Humidity 100    
Minimum Humidity 51    
Precipitation  
Precipitation T in 0.14 in 1.94 in (1994)
Month to date precipitation 2.25 1.00  
Year to date precipitation 11.95 14.38  
Snow  
Snow 0.00 in - - ()
Month to date snowfall 0.0  
Since 1 September snowfall 5.5  
Snow Depth 0.00 in    
Sea Level Pressure  
Sea Level Pressure 29.89 in    
Wind  
Wind Speed 6 mph (South)    
Max Wind Speed 14 mph    
Max Gust Speed 20 mph    
Visibility 4 miles    
Events Fog , Thunderstorm    
T = Trace of Precipitation, MM = Missing Value Source: NWS Daily Summary

Daily Weather History Graph

Daily Weather History Graph

Search for Another Location

Airport:

Trip Planner

Search our weather history database for the weather conditions in past years. The results will help you decide how hot, cold, wet, or windy it might be!

Date:

Astronomy

May. 07, 2012 Rise Set
Actual Time 6:26 AM EDT 8:27 PM EDT
Civil Twilight 5:57 AM EDT 8:56 PM EDT
Nautical Twilight 5:21 AM EDT 9:32 PM EDT
Astronomical Twilight 4:43 AM EDT 10:10 PM EDT
Moon 10:37 PM EDT (5/7) 7:31 AM EDT (5/7)
Length of Visible Light 14h 59m
Length of Day
14h 01m
Waning Gibbous, 97% of the Moon is Illuminated
May 7
Waning Gibbous
May 12
Last Quarter
May 20
New
May 28
First Quarter
Jun 4
Full

Hourly Weather History & Observations

Time (EDT) Temp. Heat Index Dew Point Humidity Pressure Visibility Wind Dir Wind Speed Gust Speed Precip Events Conditions
12:12 AM 64.4 °F - 64.4 °F 100% 29.95 in 0.8 mi ESE 3.5 mph - N/A   Clear
12:22 AM 64.4 °F - 64.4 °F 100% 29.95 in 1.0 mi Calm Calm - N/A   Mist
12:24 AM 64.4 °F - 64.4 °F 100% 29.95 in 0.8 mi Calm Calm - N/A   Mist
12:39 AM 64.4 °F - 62.6 °F 94% 29.95 in 1.0 mi Calm Calm - N/A   Mist
12:51 AM 64.0 °F - 63.0 °F 96% 29.93 in 0.5 mi Calm Calm - N/A Fog Fog
12:55 AM 64.4 °F - 62.6 °F 94% 29.94 in 0.2 mi Calm Calm - N/A Fog Fog
1:51 AM 63.0 °F - 63.0 °F 100% 29.92 in 0.2 mi Calm Calm - N/A Fog Fog
1:58 AM 62.6 °F - 62.6 °F 100% 29.93 in 0.8 mi Calm Calm - N/A   Mist
2:07 AM 62.6 °F - 62.6 °F 100% 29.93 in 1.2 mi Calm Calm - N/A   Partly Cloudy
2:19 AM 62.6 °F - 62.6 °F 100% 29.92 in 3.0 mi Calm Calm - N/A   Clear
2:39 AM 62.6 °F - 62.6 °F 100% 29.92 in 1.8 mi East 3.5 mph - N/A   Clear
2:45 AM 62.6 °F - 60.8 °F 94% 29.91 in 0.2 mi East 4.6 mph - N/A Fog Fog
2:51 AM 61.0 °F - 61.0 °F 100% 29.90 in 0.2 mi East 4.6 mph - N/A Fog Fog
3:03 AM 60.8 °F - 60.8 °F 100% 29.91 in 0.8 mi Calm Calm - N/A   Mist
3:14 AM 60.8 °F - 60.8 °F 100% 29.91 in 0.2 mi ESE 3.5 mph - N/A Fog Fog
3:24 AM 60.8 °F - 60.8 °F 100% 29.91 in 0.8 mi Calm Calm - N/A   Mist
3:28 AM 60.8 °F - 60.8 °F 100% 29.91 in 1.0 mi NE 3.5 mph - N/A   Mist
3:30 AM 60.8 °F - 60.8 °F 100% 29.91 in 0.8 mi Calm Calm - N/A   Mist
3:47 AM 60.8 °F - 60.8 °F 100% 29.91 in 0.2 mi Calm Calm - N/A Fog Fog
3:51 AM 61.0 °F - 60.1 °F 97% 29.89 in 0.2 mi Calm Calm - N/A Fog Fog
4:08 AM 60.8 °F - 60.8 °F 100% 29.90 in 0.2 mi Calm Calm - N/A Fog Fog
4:20 AM 60.8 °F - 60.8 °F 100% 29.90 in 1.0 mi Calm Calm - N/A   Mist
4:33 AM 60.8 °F - 60.8 °F 100% 29.90 in 0.5 mi Calm Calm - N/A Fog Fog
4:51 AM 60.1 °F - 59.0 °F 96% 29.88 in 0.2 mi ESE 3.5 mph - N/A Fog Fog
5:01 AM 60.8 °F - 60.8 °F 100% 29.90 in 1.0 mi Calm Calm - N/A   Mist
5:03 AM 60.8 °F - 60.8 °F 100% 29.89 in 2.0 mi ESE 3.5 mph - N/A   Scattered Clouds
5:13 AM 59.0 °F - 59.0 °F 100% 29.90 in 1.5 mi Calm Calm - N/A   Partly Cloudy
5:19 AM 60.8 °F - 59.0 °F 94% 29.89 in 3.0 mi Calm Calm - N/A   Clear
5:26 AM 59.0 °F - 59.0 °F 100% 29.89 in 1.8 mi Calm Calm - N/A   Clear
5:33 AM 60.8 °F - 59.0 °F 94% 29.89 in 0.8 mi Calm Calm - N/A   Mist
5:49 AM 59.0 °F - 59.0 °F 100% 29.90 in 0.2 mi Calm Calm - N/A Fog Fog
5:51 AM 59.0 °F - 59.0 °F 100% 29.88 in 0.2 mi Calm Calm - N/A Fog Fog
6:22 AM 59.0 °F - 59.0 °F 100% 29.92 in 0.2 mi Calm Calm - N/A Fog Fog
6:41 AM 60.8 °F - 59.0 °F 94% 29.93 in 1.0 mi Calm Calm - N/A   Mist
6:46 AM 60.8 °F - 59.0 °F 94% 29.93 in 3.0 mi Calm Calm - N/A   Mist
6:51 AM 60.1 °F - 59.0 °F 96% 29.91 in 2.5 mi Calm Calm - N/A   Clear
7:17 AM 60.8 °F - 60.8 °F 100% 29.94 in 1.8 mi Calm Calm - N/A   Clear
7:25 AM 60.8 °F - 60.8 °F 100% 29.94 in 2.5 mi Calm Calm - N/A   Clear
7:51 AM 62.1 °F - 61.0 °F 96% 29.92 in 2.0 mi Calm Calm - N/A   Scattered Clouds
8:09 AM 62.6 °F - 62.6 °F 100% 29.94 in 5.0 mi ESE 3.5 mph - N/A   Scattered Clouds
8:51 AM 68.0 °F - 64.9 °F 90% 29.91 in 5.0 mi Variable 6.9 mph - N/A   Scattered Clouds
9:51 AM 72.0 °F - 64.0 °F 76% 29.91 in 10.0 mi SSW 9.2 mph 19.6 mph N/A   Clear
10:51 AM 75.9 °F - 64.0 °F 67% 29.92 in 10.0 mi SSW 5.8 mph - N/A   Clear
11:51 AM 78.1 °F - 64.0 °F 62% 29.92 in 10.0 mi SSW 11.5 mph 18.4 mph N/A   Mostly Cloudy
12:51 PM 80.1 °F 81.5 °F 63.0 °F 56% 29.90 in 10.0 mi SSW 9.2 mph - N/A   Clear
1:51 PM 82.0 °F 83.1 °F 63.0 °F 52% 29.88 in 10.0 mi SW 10.4 mph 17.3 mph N/A   Partly Cloudy
2:51 PM 82.0 °F 83.4 °F 64.0 °F 54% 29.86 in 10.0 mi SSW 8.1 mph - N/A   Partly Cloudy
3:51 PM 80.1 °F 81.7 °F 64.0 °F 58% 29.83 in 10.0 mi SW 6.9 mph - 0.00 in   Partly Cloudy
4:51 PM 82.0 °F 83.8 °F 64.9 °F 56% 29.81 in 10.0 mi SSW 6.9 mph - N/A   Scattered Clouds
5:51 PM 80.1 °F 81.7 °F 64.0 °F 58% 29.80 in 10.0 mi South 9.2 mph - N/A   Mostly Cloudy
6:18 PM 75.2 °F - 64.4 °F 69% 29.82 in 10.0 mi South 8.1 mph - 0.00 in Thunderstorm Thunderstorm
6:47 PM 75.2 °F - 64.4 °F 69% 29.80 in 10.0 mi SSW 9.2 mph - 0.00 in Thunderstorm Thunderstorm
6:51 PM 75.0 °F - 64.9 °F 71% 29.79 in 10.0 mi SSW 9.2 mph - 0.00 in Thunderstorm Thunderstorm
7:51 PM 72.0 °F - 63.0 °F 73% 29.80 in 10.0 mi South 5.8 mph - N/A   Clear
8:00 PM 71.6 °F - 64.4 °F 78% 29.82 in 10.0 mi SSW 4.6 mph - N/A   Clear
8:51 PM 70.0 °F - 63.0 °F 78% 29.81 in 10.0 mi South 5.8 mph - N/A   Clear
9:51 PM 70.0 °F - 64.0 °F 81% 29.83 in 10.0 mi SSW 4.6 mph - N/A   Partly Cloudy
10:51 PM 70.0 °F - 64.9 °F 84% 29.83 in 10.0 mi South 3.5 mph - N/A   Scattered Clouds
11:51 PM 69.1 °F - 64.0 °F 84% 29.83 in 10.0 mi South 5.8 mph - N/A   Overcast